Location: Huesca
(42.1318°N, 0.4078°W)
Time: 05:28:22
(UTC+02:00)

Tiangong - Pass Details

Date: 18 June 2024
Orbit: 374 x 377 km, 41.5° (Epoch: 18 July)

Event Time Altitude Azimuth Distance (km) Brightness Sun altitude
Rises 22:20:29 0° 270° (W) 2,250 2.6 -6.7°
Reaches altitude 10° 22:23:37 10° 236° (SW) 1,390 0.9 -7.2°
Maximum altitude 22:24:49 12° 213° (SSW) 1,288 0.4 -7.4°
Drops below altitude 10° 22:26:01 10° 190° (S) 1,384 0.4 -7.5°
Enters shadow 22:27:30 - 170° (S) 1,714 0.7 -7.7°
